Hauptseite
METAR-TAF:

METAR-TAF

Flughäfen :

Flughafen Dijon-Bourgogne

Dijon, Frankreich

Breite: 47-16N, Länge: 005-05E, Höhe: 222 m

Beobachtung

Neuester Wetterbericht von vor 25 Minuten, um 02:00 UTC
Wind 8 kt aus Nord
Temperatur 1°C
Luftfeuchtigkeit 86%
Luftdruck 1021 hPa
Sichtweite 10 km oder mehr
keine Wolken unter 1500 m und keine Kumulonimbus oder Gewitterwolken

METAR: LFSD 180200Z AUTO 35008KT CAVOK 01/M01 Q1021

Zeit: 03:25 (02:25 UTC)


TAF: fehlend

Wetterbeobachtungen und Prognosen von mehr als 4000 Flughäfen (METAR und TAF Bericht).

Die verfügbaren Stationen werden durch gelbe und rote Markierungen auf der Karte dargestellt.

Führen Sie die Maus auf sie, um den Namen der Station zu sehen.

Darauf klicken, um die Beobachtung von Wetterbeobachtungen und Prognosen zu sehen.

Um die Karte zu ändern : klicken Sie auf den grünen Tasten mit einem schwarzen Kreuz Zum Vergrößern, auf den grünen Button mit einem Gedankenstrich zu verkleinern, oder auf die grünen Pfeile für benachbarte Karten.


METAR-TAF: